Terminal Aerodrome Forecast
Issued by NWS Boston, MA

Home | Current Version | Previous Version | Text Only | Print | Product List | Glossary On
Versions: 1 2 3 4 5 6 7 8 9 10 11 12 13 14 15 16 17 18 19 20 21 22 23 24 25 26 27 28 29 30 31 32 33 34 35 36 37 38 39 40 41 42 43 44 45 46 47 48
188
FTUS41 KBOX 121137
TAFBOS
TAF
KBOS 121137Z 1212/1318 28010KT P6SM SKC
     FM121800 24008KT P6SM FEW150
     FM122200 20008KT P6SM BKN110
     FM130600 28005KT P6SM OVC045
     FM131500 30010G25KT P6SM VCSH BKN035=

USA.gov is the U.S. government's official web portal to all federal, state and local government web resources and services.